Regional Weather Roundup
Issued by NWS Green Bay, WI

Home | Current Version | Previous Version | Text Only | Print | Product List | Glossary On
Versions: 1 2 3 4 5 6 7 8 9 10 11 12 13 14 15 16 17 18 19 20 21 22 23 24 25 26 27 28 29 30 31 32 33 34 35 36 37 38 39 40 41 42 43 44 45 46 47 48 49 50
000
ASUS43 KGRB 270210
RWRGRB

NORTH-CENTRAL AND NORTHEAST WISCONSIN REGIONAL WEATHER ROUNDUP
NATIONAL WEATHER SERVICE GREEN BAY WI
900 PM CDT TUE AUG 26 2014

WIZ005-009-010>012-018-019-270300-
NORTH CENTRAL WISCONSIN

CITY           SKY/WX    TMP DP  RH WIND       PRES   REMARKS
IRONWOOD       NOT AVBL
MANITOWISH WTR CLEAR     53  52  99 CALM      30.16R
ARBOR VITAE    CLEAR     58  53  83 CALM      30.15R
EAGLE RIVER    CLEAR     55  48  76 CALM      30.15R
LAND O LAKES   CLEAR     51  49  94 CALM      30.15S
RHINELANDER    CLEAR     57  52  83 CALM      30.15R
PHILLIPS       PTCLDY    56  53  91 CALM      30.15R
ANTIGO         CLEAR     59  54  83 CALM      30.14R
TOMAHAWK       CLEAR     54  52  93 CALM      30.15R
MERRILL        CLEAR     61  55  79 NW3       30.14R
$$

WIZ013-073-270300-
NORTHEAST WISCONSIN

CITY           SKY/WX    TMP DP  RH WIND       PRES   REMARKS
IRON MOUNTAIN  CLEAR     60  50  69 N7        30.11R
MARINETTE      CLEAR     61  55  82 CALM      30.09R
OCONTO         CLEAR     59  58  99 CALM      30.09S
$$

WIZ017-030-035>037-045-270300-
CENTRAL WISCONSIN

CITY           SKY/WX    TMP DP  RH WIND       PRES   REMARKS
MEDFORD        CLEAR     57  53  88 CALM      30.15R
WAUSAU         PTCLDY    63  54  72 W6        30.12R
MOSINEE        CLEAR     61  55  82 W5        30.15R
MARSHFIELD     PTCLDY    61  54  77 NW8       30.15R
WISC RAPIDS    PTCLDY    61  57  87 CALM      30.15R
STEVENS POINT  PTCLDY    62  53  72 NW5       30.14R
WAUPACA        CLEAR     64  58  81 W3        30.13R
SHAWANO        CLEAR     63  57  81 CALM      30.11S
CLINTONVILLE   CLEAR     61  55  82 CALM      30.11S
$$

WIZ038-039-048-051-270300-
FOX VALLEY

CITY           SKY/WX    TMP DP  RH WIND       PRES   REMARKS
NWS GREEN BAY  CLEAR     61  58  90 NW6       30.10S
APPLETON       PTCLDY    63  55  77 NW8       30.11S
OSHKOSH        CLEAR     66  56  70 NW5       30.11R
FOND DU LAC    CLEAR     64  57  78 NW6       30.12R
$$

WIZ022-050-052-270300-
EAST CENTRAL WISCONSIN

CITY           SKY/WX    TMP DP  RH WIND       PRES   REMARKS
STURGEON BAY   CLEAR     61  57  88 CALM      30.11R
MANITOWOC      CLEAR     64  60  87 NW6       30.10R
SHEBOYGAN      CLEAR     61  58  90 CALM      30.10R
$$

LMZ563-521-522-541>543-270300-
LAKESHORE

STATION/POSITION TIME  TEMP    WIND        PRES    VSBY  WAVE
                       AIR SEA DIR/SP/G                  HT/PER
                 (UTC) (F)     (DEG/KT/KT) (MB)    (MI)  (FT/S)
SHEBOYGAN LKSHOR 0200   70 64  320/  5/  6 1019.2R
KEWAUNEE LKSHORE 0200   65     290/  2/  3 1018.3R
ALGOMA MARINA    0200             CALM       N/A
NORTHPORT PIER   0200   63     180/  3/  5 1019.0S
N MID LAKE BUOY  0200   65 66  250/  6/  6 1018.9R         0
S GREEN BAY BUOY 0100   71     VRB 10      1020.1R
SISTER BAY LKSHO 0100   64        CALM       N/A
CHAMBERS ISLAND  0200   61     250/  1/  3 1019.0R
MENOMINEE LKSHOR 0200   69     250/  2/  3 1019.5S
$$


USA.gov is the U.S. government's official web portal to all federal, state and local government web resources and services.